This is the latest recevied weather packets stored in our database for station/object KC5DAQ-27. If no packets are shown the sender has not sent any weather packets the latest 1 day(s).
| Time | Temp. | Humidity | Pressure | Rain* | Wind** | Luminosity | Snow |
|---|---|---|---|---|---|---|---|
| 1778008562 | 28.33° C | 81% | 999.8 hPa | 0 mm | 2.68 m/s, 0° | 478 W/m² | - |
| 1778008504 | 28.33° C | 81% | 999.9 hPa | 0 mm | 2.68 m/s, 0° | 740 W/m² | - |
| 1778008442 | 28.33° C | 81% | 999.9 hPa | 0 mm | 2.24 m/s, 0° | 742 W/m² | - |
| 1778008380 | 28.33° C | 81% | 999.8 hPa | 0 mm | 2.68 m/s, 0° | 441 W/m² | - |
| 1778008318 | 28.33° C | 81% | 1000 hPa | 0 mm | 3.13 m/s, 0° | 529 W/m² | - |
| 1778008258 | 28.33° C | 81% | 999.9 hPa | 0 mm | 2.68 m/s, 0° | 503 W/m² | - |
| 1778008196 | 27.78° C | 82% | 999.9 hPa | 0 mm | 2.24 m/s, 0° | 951 W/m² | - |
| 1778008135 | 27.78° C | 82% | 999.9 hPa | 0 mm | 1.79 m/s, 0° | 823 W/m² | - |
| 1778008073 | 27.78° C | 81% | 999.9 hPa | 0 mm | 2.24 m/s, 0° | 568 W/m² | - |
| 1778008010 | 27.78° C | 81% | 1000 hPa | 0 mm | 3.58 m/s, 0° | 554 W/m² | - |
| 1778007949 | 27.78° C | 81% | 999.9 hPa | 0 mm | 4.02 m/s, 0° | 663 W/m² | - |
| 1778007888 | 27.78° C | 82% | 1000 hPa | 0 mm | 3.58 m/s, 0° | 738 W/m² | - |
| 1778007825 | 27.78° C | 82% | 1000 hPa | 0 mm | 3.13 m/s, 0° | 740 W/m² | - |
| 1778007766 | 27.78° C | 82% | 999.9 hPa | 0 mm | 2.68 m/s, 0° | 698 W/m² | - |
| 1778007700 | 27.78° C | 82% | 1000 hPa | 0 mm | 2.68 m/s, 0° | 707 W/m² | - |
| 1778007639 | 27.78° C | 82% | 1000.1 hPa | 0 mm | 2.68 m/s, 0° | 652 W/m² | - |
| 1778007576 | 27.78° C | 82% | 1000 hPa | 0 mm | 2.68 m/s, 0° | 679 W/m² | - |
| 1778007516 | 27.78° C | 82% | 1000.1 hPa | 0 mm | 3.58 m/s, 0° | 656 W/m² | - |
| 1778007457 | 27.78° C | 82% | 1000.1 hPa | 0 mm | 4.02 m/s, 0° | 640 W/m² | - |
| 1778007397 | 27.78° C | 82% | 1000.2 hPa | 0 mm | 4.02 m/s, 0° | 789 W/m² | - |
| 1778007336 | 27.78° C | 82% | 1000.2 hPa | 0 mm | 3.58 m/s, 0° | 789 W/m² | - |
| 1778007276 | 27.22° C | 82% | 1000.2 hPa | 0 mm | 4.02 m/s, 0° | 615 W/m² | - |
| 1778007217 | 27.22° C | 82% | 1000.2 hPa | 0 mm | 3.58 m/s, 0° | 705 W/m² | - |
| 1778007155 | 27.22° C | 82% | 1000.2 hPa | 0 mm | 4.02 m/s, 0° | 712 W/m² | - |
| 1778007096 | 27.22° C | 83% | 1000.2 hPa | 0 mm | 4.47 m/s, 0° | 1051 W/m² | - |
* Rain latest hour (hover to see other rain measurements)
** Current wind speed in m/s (hover to see current wind gust speed)